Flag for Germany Weather past 2 weeks in Bensheim, Hesse, Germany

Now
73 °F

Partly sunny.


Feels Like: 74 °F
Forecast: 65 / 81 °F
Wind: 8 mph from North

Location: Baden Wurttemberg - Neuostheim

Current Time: Jul 22, 2014 at 11:59:50 AM

Latest Report: Jul 22, 2014 at 11:20 AM


Visibility: N/A

Pressure: 29.95 "Hg

Humidity: 78%

Dew point: 66 °F

Location of BensheimLocation

Historic Weather in Bensheim — Graph

°F

Bensheim temperature yesterday

Maximum temperature yesterday: 72 °F (at 4:50 PM)
Minimum temperature yesterday: 66 °F (at 5:50 AM)
Average temperature yesterday: 68 °F

Past Weeks' High & Low Weather Summary

 TemperatureHumidityPressure
High93 °F (Jul 18, 4:50 PM)100% (Jul 11, 5:20 AM)30.18 "Hg (Jul 11, 5:20 AM)
Low55 °F (Jul 9, 6:50 AM)20% (Jul 18, 5:50 PM)29.74 "Hg (Jul 9, 6:50 PM)
Average71 °F67%29.95 "Hg
* Reported Jul 7 10:20 AM — Jul 22 10:50 AM, Bensheim, Weather by CustomWeather, © 2014

Note: Actual official high and low records may vary slightly from our data, if they occured in-between our weather recording intervals... More about our weather records

Advertising

Bensheim weather history for previous 24 hours

 ConditionsComfort  
Time TempWeatherWind HumidityBarometerVisibility
10:50 AM
Jul 22
72 °FPartly sunny.10 mph83%29.95 "HgN/A
10:20 AM72 °FBroken clouds.12 mph83%29.95 "HgN/A
9:50 AM72 °FPartly sunny.12 mph83%29.92 "HgN/A
9:20 AM70 °FPartly sunny.12 mph88%29.92 "HgN/A
8:50 AM70 °FBroken clouds.10 mph88%29.92 "Hg6 mi
8:20 AM68 °FBroken clouds.8 mph94%29.92 "HgN/A
7:50 AM68 °FBroken clouds.7 mph94%29.92 "Hg4 mi
7:20 AM68 °FPartly sunny.7 mph94%29.92 "Hg4 mi
6:50 AM68 °FLight rain. Broken clouds.9 mph94%29.89 "Hg5 mi
6:20 AM68 °FLight rain. Partly cloudy.10 mph94%29.89 "Hg4 mi
5:50 AM68 °FLight rain. Partly cloudy.9 mph94%29.89 "Hg5 mi
5:20 AM68 °FLight rain. Partly cloudy.10 mph94%29.89 "Hg4 mi
11:50 PM
Jul 21
68 °FPassing clouds.5 mph83%29.92 "HgN/A
9:50 PM70 °FMore clouds than sun.8 mph83%29.92 "HgN/A
9:20 PM72 °FPartly sunny.10 mph78%29.89 "HgN/A
8:50 PM72 °FCloudy.10 mph78%29.89 "HgN/A
8:20 PM72 °FBroken clouds.9 mph78%29.89 "HgN/A
7:50 PM70 °FBroken clouds.8 mph88%29.89 "HgN/A
7:20 PM72 °FPartly sunny.6 mph83%29.89 "HgN/A
6:50 PM72 °FBroken clouds.5 mph83%29.89 "HgN/A
6:20 PM72 °FPartly sunny.6 mph83%29.86 "HgN/A
5:50 PM70 °FScattered showers. Partly sunny.6 mph88%29.89 "HgN/A
5:20 PM72 °FPassing clouds.5 mph78%29.86 "HgN/A
4:50 PM72 °FBroken clouds.5 mph83%29.86 "Hg6 mi
4:20 PM70 °FScattered showers. Partly sunny.6 mph88%29.86 "Hg6 mi
3:50 PM70 °FScattered showers. Broken clouds.6 mph88%29.86 "Hg6 mi
3:20 PM68 °FScattered showers. Broken clouds.5 mph100%29.89 "Hg5 mi
2:50 PM68 °FScattered showers. Partly sunny.5 mph100%29.86 "Hg6 mi
2:20 PM68 °FLight rain. Partly sunny.6 mph100%29.89 "Hg5 mi
1:50 PM68 °FLight rain. Partly sunny.2 mph100%29.89 "Hg5 mi
1:20 PM66 °FLight rain. Partly sunny.6 mph100%29.89 "Hg5 mi
12:50 PM66 °FRain. Partly sunny.8 mph100%29.86 "Hg5 mi
12:20 PM66 °FRain. Fog.5 mph100%29.89 "Hg2 mi
11:50 AM66 °FLight rain. Fog.7 mph100%29.86 "Hg2 mi
11:20 AM68 °FBroken clouds.3 mph88%29.86 "HgN/A
Weather by CustomWeather, © 2014

See weather overviewHow to use our weather pages